Location: Atherton
(17.2661°S, 145.4859°E)
Time: 23:19:16
(UTC+10:00)

BlueWalker 3 - Pass Details

Date: 22 April 2026
Orbit: 447 x 458 km, 53.2° (Epoch: 11 May)

Event Time Altitude Azimuth Distance (km) Brightness Sun altitude
Exits shadow 05:58:16 10° 250° (WSW) 1,592 3.8 -7.9°
Reaches altitude 10° 05:58:19 10° 251° (WSW) 1,578 3.8 -7.9°
Maximum altitude 06:01:06 22° 303° (WNW) 1,031 3.1 -7.2°
Drops below altitude 10° 06:03:53 10° 355° (N) 1,562 4.5 -6.6°
Sets 06:06:18 0° 11° (N) 2,425 5.7 -6.0°
